This demonstration page uses our WeatherBlox Daily Observations layout. Learn more.

Left ArrowRight Arrow

40.92945, -100.16068

Hourly Observations for September 9, 2016

Temp ( °F °C ) Dew Point ( °F °C ) Humidity (%) Winds ( mph kmh ) Pressure ( in mb ) Visibility ( mi km ) Precip ( " mm )
12:15 am 00:15 Partly Cloudy with Mist and Fog 71 21.5 69 20.5 94 94 SSE 6 9 29.77 1008 3 4 N/A
12:35 am 00:35 Mostly Cloudy with Mist and Fog 71 21.7 69 20.8 95 95 S 3 6 29.77 1008 3 4 N/A
12:55 am 00:55 Cloudy with Mist and Fog 71 21.7 69 20.8 95 95 SSE 5 7 29.77 1008 3 4 N/A
1:15 am 01:15 Cloudy with Mist and Fog 72 22 70 21 94 94 S 6 9 29.74 1007 3 5 N/A
1:35 am 01:35 Cloudy with Mist and Fog 72 22.1 70 21.2 95 95 S 10 17 29.74 1007 3 5 N/A
1:55 am 01:55 Cloudy with Mist and Fog 72 22.2 70 21.3 95 95 S 10 17 29.74 1007 3 4 N/A
2:15 am 02:15 Cloudy with Mist and Fog 72 22.2 70 21.3 95 95 S 13 20 29.74 1007 2 3 N/A
2:35 am 02:35 Cloudy with Mist and Fog 72 22.2 70 21.3 95 95 S 12 19 29.74 1007 2 3 N/A
2:55 am 02:55 Cloudy with Mist and Fog 72 22.1 70 21.3 95 95 S 12 19 29.74 1007 2 2 N/A
3:15 am 03:15 Cloudy with Mist and Fog 72 22 70 21.2 95 95 S 10 17 29.74 1007 2 3 N/A
3:35 am 03:35 Cloudy with Mist and Fog 72 22 70 21.2 95 95 SSW 7 11 29.74 1007 4 6 N/A
3:55 am 03:55 Cloudy with Mist and Fog 72 22.1 70 21.1 94 94 SSW 7 11 29.74 1007 5 8 N/A
4:15 am 04:15 Cloudy with Mist and Fog 72 22.4 70 21.3 94 94 SSW 6 9 29.74 1007 5 8 N/A
4:35 am 04:35 Cloudy with Mist and Fog 72 22.1 70 21 94 94 S 7 11 29.74 1007 5 8 N/A
4:55 am 04:55 Cloudy with Mist and Fog 72 22.1 70 21 94 94 SSW 8 13 29.74 1007 5 8 N/A
5:15 am 05:15 Cloudy with Mist and Fog 72 22 70 21 94 94 SSW 7 11 29.74 1007 5 8 N/A
5:35 am 05:35 Cloudy with Mist and Fog 72 22 70 21 94 94 SSW 10 17 29.74 1007 5 8 N/A
5:55 am 05:55 Cloudy with Mist and Fog 72 22 69 20.8 93 93 S 5 7 29.74 1007 5 8 N/A
6:15 am 06:15 Cloudy 72 22 69 20.8 93 93 E 3 6 29.74 1007 7 11 N/A
6:35 am 06:35 Cloudy 72 22 69 20.6 92 92 SE 3 6 29.80 1009 7 11 N/A
6:55 am 06:55 Cloudy 71 21.8 69 20.5 92 92 SE 3 6 29.80 1009 7 11 N/A
7:15 am 07:15 Cloudy 71 21.8 69 20.5 92 92 SSE 3 6 29.80 1009 7 11 N/A
7:35 am 07:35 Cloudy with Mist and Fog 71 21.7 69 20.5 93 93 S 3 6 29.80 1009 5 8 N/A
7:55 am 07:55 Cloudy with Mist and Fog 71 21.8 69 20.5 92 92 SSE 5 7 29.80 1009 5 8 N/A
8:15 am 08:15 Cloudy with Mist and Fog 71 21.6 69 20.6 94 94 S 5 7 29.80 1009 3 4 N/A
8:35 am 08:35 Cloudy with Mist and Fog 71 21.7 69 20.7 94 94 S 3 6 29.80 1009 1 2 N/A
8:55 am 08:55 Cloudy with Mist and Fog 71 21.6 69 20.7 95 95 N N/A 29.83 1010 1 2 N/A
9:15 am 09:15 Cloudy with Mist and Fog 71 21.6 69 20.7 95 95 N N/A 29.83 1010 2 3 N/A
9:35 am 09:35 Cloudy with Mist and Fog 71 21.7 69 20.8 95 95 N N/A 29.83 1010 2 2 N/A
9:55 am 09:55 Cloudy with Mist and Fog 72 22.2 70 21.2 94 94 N N/A 29.83 1010 3 4 N/A
10:15 am 10:15 Cloudy with Mist and Fog 72 22.3 70 21.3 94 94 N N/A 29.83 1010 3 5 N/A
10:35 am 10:35 Cloudy 74 23.1 71 21.6 91 91 W 7 11 29.80 1009 7 11 N/A
10:55 am 10:55 Cloudy 75 24 71 21.4 85 85 W 9 15 29.80 1009 10 16 N/A
11:15 am 11:15 Cloudy 68 20.1 63 17.1 83 83 N 14 22 29.85 1011 10 16 N/A
11:35 am 11:35 Cloudy 70 21.2 63 17.4 79 79 N 16 26 29.85 1011 10 16 N/A
11:55 am 11:55 Cloudy 71 21.7 62 16.6 73 73 N 16 26 29.85 1011 10 16 N/A
12:15 pm 12:15 Cloudy 70 21.3 61 16.1 72 72 N 17 28 29.88 1012 10 16 N/A
12:35 pm 12:35 Cloudy 69 20.6 58 14.5 68 68 N 14 22 29.88 1012 10 16 N/A
12:55 pm 12:55 Cloudy 68 20.2 54 12.4 61 61 N 13 20 29.91 1013 10 16 N/A
1:15 pm 13:15 Cloudy 70 21.1 55 12.7 59 59 N 17 28 29.91 1013 10 16 N/A
1:35 pm 13:35 Cloudy 71 21.5 53 11.8 54 54 N 17 28 29.91 1013 10 16 N/A
1:55 pm 13:55 Cloudy 71 21.9 51 10.4 48 48 N 22 35 29.91 1013 10 16 N/A
2:15 pm 14:15 Cloudy 74 23.1 49 9.6 42 42 N 22 35 29.91 1013 10 16 N/A
2:35 pm 14:35 Cloudy 73 23 49 9.2 42 42 N 24 39 29.91 1013 7 11 N/A
2:55 pm 14:55 Cloudy 73 22.9 48 8.7 40 40 N 23 37 29.94 1014 10 16 N/A
3:15 pm 15:15 Cloudy 73 22.5 47 8.5 41 41 NNE 18 30 29.94 1014 10 16 N/A
3:35 pm 15:35 Mostly Cloudy 73 23 47 8.2 39 39 NNE 18 30 29.94 1014 10 16 N/A
3:55 pm 15:55 Partly Cloudy 73 23 46 7.7 38 38 NNE 17 28 29.94 1014 10 16 N/A
4:15 pm 16:15 Sunny 72 22.2 45 7 38 38 N 22 35 29.94 1014 10 16 N/A
4:35 pm 16:35 Sunny 72 22.2 43 5.9 35 35 N 22 35 29.94 1014 10 16 N/A
4:55 pm 16:55 Sunny 72 22.2 44 6.5 36 36 N 21 33 29.97 1015 10 16 N/A
5:15 pm 17:15 Sunny 72 22.2 44 6.5 36 36 N 21 33 29.97 1015 10 16 N/A
5:35 pm 17:35 Sunny 71 21.7 44 6.6 38 38 N 23 37 30.00 1016 10 16 N/A
5:55 pm 17:55 Sunny 70 21.3 43 6 37 37 N 15 24 30.00 1016 10 16 N/A
6:15 pm 18:15 Sunny 70 21.2 43 6.3 38 38 N 14 22 30.00 1016 10 16 N/A
6:35 pm 18:35 Sunny 69 20.8 44 6.7 40 40 N 16 26 30.06 1018 10 16 N/A
6:55 pm 18:55 Sunny 68 19.9 43 6.3 41 41 N 17 28 30.06 1018 10 16 N/A
7:15 pm 19:15 Sunny 66 19.1 44 6.4 44 44 N 14 22 30.06 1018 10 16 N/A
7:35 pm 19:35 Sunny 65 18.1 44 6.9 48 48 NNW 9 15 30.09 1019 10 16 N/A
7:55 pm 19:55 Sunny 61 16.2 46 8 59 59 NNW 7 11 30.12 1020 10 16 N/A
8:15 pm 20:15 Clear 59 14.8 48 8.8 68 68 NNW 6 9 30.12 1020 10 16 N/A
8:35 pm 20:35 Clear 56 13.4 49 9.2 76 76 NNW 6 9 30.15 1021 10 16 N/A
8:55 pm 20:55 Clear 55 13 47 8.5 74 74 NW 9 15 30.15 1021 10 16 N/A
9:15 pm 21:15 Clear 55 13 46 8 72 72 NW 8 13 30.18 1022 10 16 N/A
9:35 pm 21:35 Clear 54 12.4 46 8 75 75 NNW 6 9 30.18 1022 10 16 N/A
9:55 pm 21:55 Clear 52 11.1 46 7.9 81 81 NW 8 13 30.18 1022 10 16 N/A
10:15 pm 22:15 Clear 51 10.8 46 7.8 82 82 NW 8 13 30.18 1022 10 16 N/A
10:35 pm 22:35 Clear 51 10.5 46 7.5 82 82 NW 5 7 30.21 1023 10 16 N/A
10:55 pm 22:55 Clear 51 10.3 46 7.5 83 83 N N/A 30.24 1024 10 16 N/A
11:15 pm 23:15 Clear 50 10 46 7.5 85 85 N N/A 30.24 1024 10 16 N/A
11:35 pm 23:35 Clear 49 9.7 46 7.6 87 87 N N/A 30.24 1024 10 16 N/A
11:55 pm 23:55 Clear 52 11.1 44 6.5 74 74 WNW 3 6 30.24 1024 10 16 N/A

Powered by AerisWeather